| time (UTC) | temp C | wind direction | speed KPH | gust KPH | rain 1hr cm | rain 24hr cm | rain mn cm | humidity % | barometer mb |
| 20260901175525 | 28 | 225 | 4.8 | 14.5 | 0.00 | 0.00 | 0.00 | 43 | 1014.9 |
| 20260901175021 | 27 | 271 | 3.2 | 16.1 | 0.00 | 0.00 | 0.00 | 43 | 1015.0 |
| 20260901174534 | 27 | 0 | 4.8 | 16.1 | 0.00 | 0.00 | 0.00 | 45 | 1014.9 |
| 20260901174020 | 28 | 227 | 3.2 | 16.1 | 0.00 | 0.00 | 0.00 | 43 | 1015.0 |
| 20260901173524 | 28 | 227 | 4.8 | 12.9 | 0.00 | 0.00 | 0.00 | 44 | 1015.2 |
| 20260901173044 | 28 | 229 | 3.2 | 6.4 | 0.00 | 0.00 | 0.00 | 45 | 1015.2 |
| 20260901172519 | 28 | 227 | 0.0 | 6.4 | 0.00 | 0.00 | 0.00 | 46 | 1015.2 |
| 20260901172017 | 28 | 229 | 0.0 | 6.4 | 0.00 | 0.00 | 0.00 | 46 | 1015.2 |
| 20260901171537 | 28 | 229 | 1.6 | 6.4 | 0.00 | 0.00 | 0.00 | 48 | 1015.3 |
| 20260901171019 | 28 | 284 | 1.6 | 6.4 | 0.00 | 0.00 | 0.00 | 48 | 1015.3 |
| 20260901170523 | 27 | 263 | 0.0 | 8.0 | 0.00 | 0.00 | 0.00 | 47 | 1015.4 |
| 20260901170036 | 27 | 0 | 1.6 | 12.9 | 0.00 | 0.00 | 0.00 | 50 | 1015.4 |
| 20260901165520 | 26 | 230 | 1.6 | 14.5 | 0.00 | 0.00 | 0.00 | 49 | 1015.5 |
| 20260901165021 | 26 | 246 | 4.8 | 14.5 | 0.00 | 0.00 | 0.00 | 53 | 1015.5 |
| 20260901164537 | 27 | 232 | 1.6 | 11.3 | 0.00 | 0.00 | 0.00 | 52 | 1015.5 |
| 20260901164020 | 27 | 232 | 3.2 | 11.3 | 0.00 | 0.00 | 0.00 | 52 | 1015.6 |
| 20260901163523 | 27 | 0 | 0.0 | 4.8 | 0.00 | 0.00 | 0.00 | 50 | 1015.7 |
| 20260901163039 | 27 | 0 | 0.0 | 6.4 | 0.00 | 0.00 | 0.00 | 52 | 1015.8 |
| 20260901162519 | 26 | 0 | 0.0 | 8.0 | 0.00 | 0.00 | 0.00 | 53 | 1015.8 |
| 20260901162018 | 26 | 0 | 1.6 | 8.0 | 0.00 | 0.00 | 0.00 | 53 | 1015.8 |
| 20260901161547 | 26 | 0 | 0.0 | 6.4 | 0.00 | 0.00 | 0.00 | 52 | 1015.8 |
| 20260901161022 | 26 | 0 | 0.0 | 6.4 | 0.00 | 0.00 | 0.00 | 55 | 1015.8 |
| 20260901160520 | 26 | 229 | 0.0 | 8.0 | 0.00 | 0.00 | 0.00 | 56 | 1015.8 |
| 20260901160037 | 26 | 0 | 0.0 | 8.0 | 0.00 | 0.00 | 0.00 | 59 | 1015.7 |
| 20260901155520 | 26 | 229 | 3.2 | 6.4 | 0.00 | 0.00 | 0.00 | 55 | 1015.9 |
| 20260901155021 | 26 | 0 | 1.6 | 6.4 | 0.00 | 0.00 | 0.00 | 56 | 1015.9 |
| 20260901154537 | 26 | 0 | 1.6 | 6.4 | 0.00 | 0.00 | 0.00 | 58 | 1016.0 |
| 20260901154023 | 26 | 229 | 0.0 | 3.2 | 0.00 | 0.00 | 0.00 | 60 | 1016.1 |
| 20260901153520 | 26 | 0 | 0.0 | 4.8 | 0.00 | 0.00 | 0.00 | 65 | 1016.0 |
| 20260901153044 | 25 | 0 | 0.0 | 4.8 | 0.00 | 0.00 | 0.00 | 62 | 1016.1 |
| 20260901152516 | 25 | 229 | 3.2 | 4.8 | 0.00 | 0.00 | 0.00 | 61 | 1016.1 |
| 20260901152016 | 25 | 229 | 0.0 | 3.2 | 0.00 | 0.00 | 0.00 | 65 | 1016.1 |
| 20260901151535 | 24 | 229 | 0.0 | 3.2 | 0.00 | 0.00 | 0.00 | 63 | 1016.2 |
| 20260901151022 | 24 | 0 | 0.0 | 3.2 | 0.00 | 0.00 | 0.00 | 68 | 1016.2 |
| 20260901150525 | 23 | 0 | 0.0 | 4.8 | 0.00 | 0.00 | 0.00 | 70 | 1016.1 |
| 20260901150035 | 23 | 0 | 0.0 | 4.8 | 0.00 | 0.00 | 0.00 | 70 | 1016.1 |
| 20260901145521 | 23 | 0 | 0.0 | 1.6 | 0.00 | 0.00 | 0.00 | 72 | 1016.2 |
| 20260901145019 | 23 | 0 | 0.0 | 3.2 | 0.00 | 0.00 | 0.00 | 72 | 1016.1 |
| 20260901144534 | 23 | 0 | 0.0 | 3.2 | 0.00 | 0.00 | 0.00 | 72 | 1016.0 |
| 20260901144025 | 22 | 229 | 0.0 | 1.6 | 0.00 | 0.00 | 0.00 | 74 | 1016.0 |
| 20260901143520 | 22 | 0 | 0.0 | 1.6 | 0.00 | 0.00 | 0.00 | 76 | 1016.0 |
| 20260901143035 | 22 | 0 | 0.0 | 3.2 | 0.00 | 0.00 | 0.00 | 79 | 1015.9 |
| 20260901142516 | 21 | 229 | 0.0 | 8.0 | 0.00 | 0.00 | 0.00 | 82 | 1016.0 |
| 20260901142023 | 21 | 229 | 0.0 | 8.0 | 0.00 | 0.00 | 0.00 | 79 | 1015.9 |
| 20260901141544 | 21 | 0 | 0.0 | 3.2 | 0.00 | 0.00 | 0.00 | 82 | 1015.9 |
| 20260901141026 | 20 | 349 | 0.0 | 3.2 | 0.00 | 0.00 | 0.00 | 84 | 1015.9 |
| 20260901140524 | 20 | 0 | 0.0 | 0.0 | 0.00 | 0.00 | 0.00 | 88 | 1015.9 |
| 20260901140035 | 18 | 0 | 0.0 | 0.0 | 0.00 | 0.00 | 0.00 | 92 | 1016.0 |
| 20260901135524 | 18 | 0 | 0.0 | 0.0 | 0.00 | 0.00 | 0.00 | 93 | 1016.0 |
| 20260901135021 | 18 | 0 | 0.0 | 0.0 | 0.00 | 0.00 | 0.00 | 95 | 1016.1 |
| 20260901134535 | 17 | 0 | 0.0 | 0.0 | 0.00 | 0.00 | 0.00 | 97 | 1016.1 |
| 20260901134021 | 17 | 0 | 0.0 | 0.0 | 0.00 | 0.00 | 0.00 | 98 | 1016.1 |
| 20260901133518 | 17 | 0 | 0.0 | 0.0 | 0.00 | 0.00 | 0.00 | 100 | 1016.1 |
| 20260901133037 | 16 | 0 | 0.0 | 0.0 | 0.00 | 0.00 | 0.00 | 100 | 1016.2 |
| 20260901132520 | 16 | 0 | 0.0 | 0.0 | 0.00 | 0.00 | 0.00 | 100 | 1016.1 |
| 20260901132020 | 15 | 0 | 0.0 | 0.0 | 0.00 | 0.00 | 0.00 | 100 | 1016.0 |
| 20260901131536 | 15 | 0 | 0.0 | 0.0 | 0.00 | 0.00 | 0.00 | 100 | 1016.1 |
| 20260901131021 | 15 | 0 | 0.0 | 0.0 | 0.00 | 0.00 | 0.00 | 100 | 1016.0 |
| 20260901130521 | 15 | 0 | 0.0 | 0.0 | 0.00 | 0.00 | 0.00 | 100 | 1015.9 |
| 20260901130032 | 15 | 0 | 0.0 | 0.0 | 0.00 | 0.00 | 0.00 | 100 | 1015.8 |
| 20260901125521 | 14 | 0 | 0.0 | 0.0 | 0.00 | 0.00 | 0.00 | 100 | 1015.8 |
| 20260901125018 | 14 | 0 | 0.0 | 0.0 | 0.00 | 0.00 | 0.00 | 99 | 1015.8 |
| 20260901124540 | 14 | 0 | 0.0 | 0.0 | 0.00 | 0.00 | 0.00 | 99 | 1015.7 |
| 20260901124016 | 14 | 0 | 0.0 | 0.0 | 0.00 | 0.00 | 0.00 | 99 | 1015.7 |
| 20260901123520 | 14 | 0 | 0.0 | 0.0 | 0.00 | 0.00 | 0.00 | 99 | 1015.6 |
| 20260901123040 | 14 | 0 | 0.0 | 0.0 | 0.00 | 0.00 | 0.00 | 99 | 1015.6 |
| 20260901122524 | 14 | 0 | 0.0 | 0.0 | 0.00 | 0.00 | 0.00 | 100 | 1015.5 |
| 20260901122019 | 14 | 0 | 0.0 | 0.0 | 0.00 | 0.00 | 0.00 | 100 | 1015.5 |
| 20260901121538 | 14 | 0 | 0.0 | 0.0 | 0.00 | 0.00 | 0.00 | 100 | 1015.6 |
| 20260901121024 | 14 | 0 | 0.0 | 0.0 | 0.00 | 0.00 | 0.00 | 100 | 1015.5 |
| 20260901120521 | 13 | 0 | 0.0 | 0.0 | 0.00 | 0.00 | 0.00 | 100 | 1015.4 |
| 20260901120036 | 13 | 0 | 0.0 | 0.0 | 0.00 | 0.00 | 0.00 | 99 | 1015.4 |
| 20260901115523 | 13 | 0 | 0.0 | 0.0 | 0.00 | 0.00 | 0.00 | 99 | 1015.4 |
| 20260901115025 | 13 | 0 | 0.0 | 0.0 | 0.00 | 0.00 | 0.00 | 99 | 1015.3 |
| 20260901114536 | 13 | 0 | 0.0 | 0.0 | 0.00 | 0.00 | 0.00 | 99 | 1015.2 |
| 20260901114019 | 13 | 0 | 0.0 | 0.0 | 0.00 | 0.00 | 0.00 | 99 | 1015.1 |
| 20260901113520 | 13 | 0 | 0.0 | 0.0 | 0.00 | 0.00 | 0.00 | 99 | 1015.1 |
| 20260901113037 | 13 | 0 | 0.0 | 0.0 | 0.00 | 0.00 | 0.00 | 99 | 1015.1 |
| 20260901112521 | 13 | 0 | 0.0 | 0.0 | 0.00 | 0.00 | 0.00 | 98 | 1014.9 |
| 20260901112017 | 13 | 0 | 0.0 | 0.0 | 0.00 | 0.00 | 0.00 | 98 | 1014.8 |
| 20260901111535 | 13 | 0 | 0.0 | 0.0 | 0.00 | 0.00 | 0.00 | 99 | 1014.7 |
| 20260901111018 | 13 | 0 | 0.0 | 0.0 | 0.00 | 0.00 | 0.00 | 99 | 1014.7 |
| 20260901110515 | 13 | 0 | 0.0 | 0.0 | 0.00 | 0.00 | 0.00 | 98 | 1014.6 |
| 20260901110037 | 14 | 0 | 0.0 | 0.0 | 0.00 | 0.00 | 0.00 | 99 | 1014.7 |
| 20260901105520 | 14 | 0 | 0.0 | 0.0 | 0.00 | 0.00 | 0.00 | 99 | 1014.6 |
| 20260901105022 | 14 | 0 | 0.0 | 0.0 | 0.00 | 0.00 | 0.00 | 99 | 1014.6 |
| 20260901104540 | 13 | 0 | 0.0 | 0.0 | 0.00 | 0.00 | 0.00 | 99 | 1014.6 |
| 20260901104020 | 13 | 0 | 0.0 | 0.0 | 0.00 | 0.00 | 0.00 | 99 | 1014.7 |
| 20260901103519 | 13 | 0 | 0.0 | 0.0 | 0.00 | 0.00 | 0.00 | 98 | 1014.7 |
| 20260901103037 | 13 | 0 | 0.0 | 0.0 | 0.00 | 0.00 | 0.00 | 98 | 1014.7 |
| 20260901102525 | 13 | 0 | 0.0 | 0.0 | 0.00 | 0.00 | 0.00 | 98 | 1014.7 |
| 20260901102017 | 14 | 0 | 0.0 | 0.0 | 0.00 | 0.00 | 0.00 | 99 | 1014.7 |
| 20260901101538 | 14 | 0 | 0.0 | 0.0 | 0.00 | 0.00 | 0.00 | 99 | 1014.8 |
| 20260901101018 | 14 | 0 | 0.0 | 0.0 | 0.00 | 0.00 | 0.00 | 98 | 1014.7 |
| 20260901100516 | 14 | 0 | 0.0 | 0.0 | 0.00 | 0.00 | 0.00 | 99 | 1014.7 |
| 20260901100034 | 13 | 0 | 0.0 | 0.0 | 0.00 | 0.00 | 0.00 | 98 | 1014.7 |
| 20260901095521 | 14 | 0 | 0.0 | 0.0 | 0.00 | 0.00 | 0.00 | 98 | 1014.7 |
| 20260901095021 | 14 | 0 | 0.0 | 0.0 | 0.00 | 0.00 | 0.00 | 98 | 1014.6 |
| 20260901094538 | 14 | 0 | 0.0 | 0.0 | 0.00 | 0.00 | 0.00 | 98 | 1014.7 |
| 20260901094020 | 14 | 0 | 0.0 | 0.0 | 0.00 | 0.00 | 0.00 | 98 | 1014.7 |
| 20260901093519 | 14 | 0 | 0.0 | 0.0 | 0.00 | 0.00 | 0.00 | 98 | 1014.7 |
| 20260901093035 | 14 | 0 | 0.0 | 0.0 | 0.00 | 0.00 | 0.00 | 98 | 1014.7 |
| 20260901092518 | 15 | 0 | 0.0 | 0.0 | 0.00 | 0.00 | 0.00 | 98 | 1014.7 |
| 20260901092021 | 15 | 0 | 0.0 | 0.0 | 0.00 | 0.00 | 0.00 | 98 | 1014.6 |
| 20260901091535 | 14 | 0 | 0.0 | 0.0 | 0.00 | 0.00 | 0.00 | 98 | 1014.6 |
| 20260901091017 | 15 | 0 | 0.0 | 0.0 | 0.00 | 0.00 | 0.00 | 98 | 1014.7 |
| 20260901090515 | 15 | 0 | 0.0 | 0.0 | 0.00 | 0.00 | 0.00 | 98 | 1014.7 |
| 20260901090034 | 14 | 0 | 0.0 | 0.0 | 0.00 | 0.00 | 0.00 | 97 | 1014.6 |
| 20260901085519 | 15 | 0 | 0.0 | 0.0 | 0.00 | 0.00 | 0.00 | 98 | 1014.6 |
| 20260901085021 | 15 | 0 | 0.0 | 0.0 | 0.00 | 0.00 | 0.00 | 98 | 1014.6 |
| 20260901084534 | 15 | 0 | 0.0 | 0.0 | 0.00 | 0.00 | 0.00 | 97 | 1014.6 |
| 20260901084023 | 15 | 0 | 0.0 | 0.0 | 0.00 | 0.00 | 0.00 | 98 | 1014.7 |
| 20260901083518 | 15 | 0 | 0.0 | 0.0 | 0.00 | 0.00 | 0.00 | 99 | 1014.7 |
| 20260901083036 | 15 | 0 | 0.0 | 0.0 | 0.00 | 0.00 | 0.00 | 98 | 1014.7 |
| 20260901082520 | 15 | 0 | 0.0 | 0.0 | 0.00 | 0.00 | 0.00 | 98 | 1014.7 |
| 20260901082018 | 15 | 0 | 0.0 | 0.0 | 0.00 | 0.00 | 0.00 | 98 | 1014.7 |
| 20260901081535 | 15 | 0 | 0.0 | 0.0 | 0.00 | 0.00 | 0.00 | 97 | 1014.8 |
| 20260901081020 | 15 | 0 | 0.0 | 0.0 | 0.00 | 0.00 | 0.00 | 98 | 1014.6 |
| 20260901080522 | 15 | 0 | 0.0 | 0.0 | 0.00 | 0.00 | 0.00 | 97 | 1014.7 |
| 20260901080038 | 15 | 0 | 0.0 | 0.0 | 0.00 | 0.00 | 0.00 | 97 | 1014.8 |
| 20260901075520 | 16 | 0 | 0.0 | 0.0 | 0.00 | 0.00 | 0.00 | 98 | 1014.7 |
| 20260901075020 | 16 | 0 | 0.0 | 0.0 | 0.00 | 0.00 | 0.00 | 98 | 1014.7 |
| 20260901074543 | 16 | 0 | 0.0 | 0.0 | 0.00 | 0.00 | 0.00 | 98 | 1014.7 |
| 20260901074019 | 16 | 0 | 0.0 | 0.0 | 0.00 | 0.00 | 0.00 | 98 | 1014.8 |
| 20260901073522 | 16 | 0 | 0.0 | 0.0 | 0.00 | 0.00 | 0.00 | 98 | 1014.7 |
| 20260901073039 | 16 | 0 | 0.0 | 0.0 | 0.00 | 0.00 | 0.00 | 98 | 1014.8 |
| 20260901072520 | 16 | 0 | 0.0 | 0.0 | 0.00 | 0.00 | 0.00 | 98 | 1014.8 |
| 20260901072016 | 16 | 0 | 0.0 | 0.0 | 0.00 | 0.00 | 0.00 | 98 | 1014.9 |
| 20260901071536 | 16 | 0 | 0.0 | 0.0 | 0.00 | 0.00 | 0.00 | 98 | 1014.8 |
| 20260901071022 | 16 | 0 | 0.0 | 0.0 | 0.00 | 0.00 | 0.00 | 98 | 1014.8 |
| 20260901070523 | 16 | 0 | 0.0 | 0.0 | 0.00 | 0.00 | 0.00 | 98 | 1014.8 |
| 20260901070035 | 16 | 0 | 0.0 | 0.0 | 0.00 | 0.00 | 0.00 | 98 | 1014.9 |
| 20260901065522 | 16 | 0 | 0.0 | 0.0 | 0.00 | 0.00 | 0.00 | 98 | 1014.9 |
| 20260901065020 | 16 | 0 | 0.0 | 0.0 | 0.00 | 0.00 | 0.00 | 98 | 1015.0 |
| 20260901064537 | 16 | 0 | 0.0 | 0.0 | 0.00 | 0.00 | 0.00 | 98 | 1015.0 |
| 20260901064020 | 16 | 0 | 0.0 | 0.0 | 0.00 | 0.00 | 0.00 | 98 | 1015.0 |
| 20260901063520 | 16 | 0 | 0.0 | 0.0 | 0.00 | 0.00 | 0.00 | 98 | 1015.0 |
| 20260901063036 | 16 | 0 | 0.0 | 0.0 | 0.00 | 0.00 | 0.00 | 98 | 1015.0 |
| 20260901062518 | 16 | 0 | 0.0 | 0.0 | 0.00 | 0.00 | 0.00 | 97 | 1015.0 |
| 20260901062018 | 16 | 0 | 0.0 | 0.0 | 0.00 | 0.00 | 0.00 | 97 | 1015.0 |
| 20260901061537 | 16 | 0 | 0.0 | 0.0 | 0.00 | 0.00 | 0.00 | 97 | 1015.0 |
| 20260901061020 | 16 | 0 | 0.0 | 0.0 | 0.00 | 0.00 | 0.00 | 97 | 1015.0 |
| 20260901060520 | 16 | 0 | 0.0 | 0.0 | 0.00 | 0.00 | 0.00 | 97 | 1015.0 |
| 20260901060034 | 16 | 0 | 0.0 | 0.0 | 0.00 | 0.00 | 0.00 | 97 | 1014.8 |
| 20260901055522 | 16 | 0 | 0.0 | 0.0 | 0.00 | 0.00 | 0.00 | 97 | 1014.8 |
| 20260901055022 | 16 | 0 | 0.0 | 0.0 | 0.00 | 0.00 | 0.00 | 97 | 1014.9 |
| 20260901054537 | 16 | 0 | 0.0 | 0.0 | 0.00 | 0.00 | 0.00 | 97 | 1014.8 |
| 20260901054021 | 16 | 0 | 0.0 | 0.0 | 0.00 | 0.00 | 0.00 | 97 | 1014.8 |
| 20260901053520 | 16 | 0 | 0.0 | 0.0 | 0.00 | 0.00 | 0.00 | 97 | 1014.8 |
| 20260901053049 | 16 | 0 | 0.0 | 0.0 | 0.00 | 0.00 | 0.00 | 97 | 1014.8 |
| 20260901052518 | 17 | 0 | 0.0 | 0.0 | 0.00 | 0.00 | 0.00 | 97 | 1014.8 |
| 20260901052018 | 17 | 0 | 0.0 | 0.0 | 0.00 | 0.00 | 0.00 | 96 | 1014.8 |
| 20260901051552 | 17 | 0 | 0.0 | 0.0 | 0.00 | 0.00 | 0.00 | 97 | 1014.8 |
| 20260901051021 | 17 | 0 | 0.0 | 0.0 | 0.00 | 0.00 | 0.00 | 97 | 1014.9 |
| 20260901050520 | 17 | 0 | 0.0 | 0.0 | 0.00 | 0.00 | 0.00 | 97 | 1014.7 |
| 20260901050034 | 17 | 0 | 0.0 | 0.0 | 0.00 | 0.00 | 0.00 | 97 | 1014.7 |
| 20260901045519 | 17 | 0 | 0.0 | 0.0 | 0.00 | 0.00 | 0.00 | 96 | 1014.6 |
| 20260901045024 | 17 | 0 | 0.0 | 0.0 | 0.00 | 0.00 | 0.00 | 96 | 1014.6 |
| 20260901044537 | 17 | 0 | 0.0 | 0.0 | 0.00 | 0.00 | 0.00 | 96 | 1014.6 |
| 20260901044018 | 17 | 0 | 0.0 | 0.0 | 0.00 | 0.00 | 0.00 | 95 | 1014.6 |
| 20260901043518 | 17 | 0 | 0.0 | 0.0 | 0.00 | 0.00 | 0.00 | 94 | 1014.6 |
| 20260901043040 | 17 | 0 | 0.0 | 0.0 | 0.00 | 0.00 | 0.00 | 96 | 1014.5 |
| 20260901042519 | 17 | 0 | 0.0 | 0.0 | 0.00 | 0.00 | 0.00 | 95 | 1014.5 |
| 20260901042017 | 17 | 0 | 0.0 | 0.0 | 0.00 | 0.00 | 0.00 | 94 | 1014.5 |
| 20260901041551 | 17 | 0 | 0.0 | 0.0 | 0.00 | 0.00 | 0.00 | 95 | 1014.6 |
| 20260901041021 | 17 | 0 | 0.0 | 0.0 | 0.00 | 0.00 | 0.00 | 95 | 1014.6 |
| 20260901040520 | 17 | 0 | 0.0 | 0.0 | 0.00 | 0.00 | 0.00 | 95 | 1014.6 |
| 20260901040036 | 17 | 0 | 0.0 | 0.0 | 0.00 | 0.00 | 0.00 | 95 | 1014.6 |
| 20260901035520 | 17 | 0 | 0.0 | 0.0 | 0.00 | 0.00 | 0.00 | 95 | 1014.5 |
| 20260901035019 | 17 | 0 | 0.0 | 0.0 | 0.00 | 0.00 | 0.00 | 95 | 1014.5 |
| 20260901034535 | 17 | 0 | 0.0 | 0.0 | 0.00 | 0.00 | 0.00 | 94 | 1014.5 |
| 20260901034018 | 17 | 0 | 0.0 | 0.0 | 0.00 | 0.00 | 0.00 | 94 | 1014.5 |
| 20260901033518 | 17 | 0 | 0.0 | 0.0 | 0.00 | 0.00 | 0.00 | 94 | 1014.5 |
| 20260901033036 | 18 | 0 | 0.0 | 0.0 | 0.00 | 0.00 | 0.00 | 93 | 1014.4 |
| 20260901032519 | 18 | 0 | 0.0 | 0.0 | 0.00 | 0.00 | 0.00 | 93 | 1014.5 |
| 20260901032024 | 18 | 0 | 0.0 | 0.0 | 0.00 | 0.00 | 0.00 | 92 | 1014.4 |
| 20260901031551 | 18 | 0 | 0.0 | 0.0 | 0.00 | 0.00 | 0.00 | 92 | 1014.3 |
| 20260901031016 | 18 | 0 | 0.0 | 0.0 | 0.00 | 0.00 | 0.00 | 92 | 1014.4 |
| 20260901030518 | 18 | 0 | 0.0 | 0.0 | 0.00 | 0.00 | 0.00 | 91 | 1014.4 |
| 20260901030035 | 18 | 0 | 0.0 | 0.0 | 0.00 | 0.00 | 0.00 | 89 | 1014.5 |
| 20260901025519 | 18 | 0 | 0.0 | 0.0 | 0.00 | 0.00 | 0.00 | 90 | 1014.4 |
| 20260901025025 | 18 | 0 | 0.0 | 0.0 | 0.00 | 0.00 | 0.00 | 90 | 1014.3 |
| 20260901024536 | 18 | 0 | 0.0 | 0.0 | 0.00 | 0.00 | 0.00 | 89 | 1014.3 |
| 20260901024018 | 18 | 0 | 0.0 | 0.0 | 0.00 | 0.00 | 0.00 | 88 | 1014.3 |
| 20260901023520 | 19 | 0 | 0.0 | 0.0 | 0.00 | 0.00 | 0.00 | 88 | 1014.4 |
| 20260901023039 | 19 | 0 | 0.0 | 0.0 | 0.00 | 0.00 | 0.00 | 88 | 1014.3 |
| 20260901022520 | 19 | 0 | 0.0 | 0.0 | 0.00 | 0.00 | 0.00 | 86 | 1014.3 |
| 20260901022020 | 19 | 0 | 0.0 | 0.0 | 0.00 | 0.00 | 0.00 | 86 | 1014.3 |
| 20260901021536 | 19 | 0 | 0.0 | 0.0 | 0.00 | 0.00 | 0.00 | 85 | 1014.3 |
| 20260901021021 | 19 | 0 | 0.0 | 0.0 | 0.00 | 0.00 | 0.00 | 85 | 1014.2 |
| 20260901020524 | 19 | 0 | 0.0 | 0.0 | 0.00 | 0.00 | 0.00 | 83 | 1014.2 |
| 20260901020036 | 20 | 0 | 0.0 | 0.0 | 0.00 | 0.00 | 0.00 | 83 | 1014.1 |
| 20260901015520 | 20 | 0 | 0.0 | 0.0 | 0.00 | 0.00 | 0.00 | 82 | 1014.2 |
| 20260901015024 | 20 | 0 | 0.0 | 0.0 | 0.00 | 0.00 | 0.00 | 81 | 1014.2 |
| 20260901014544 | 20 | 0 | 0.0 | 0.0 | 0.00 | 0.00 | 0.00 | 81 | 1014.2 |
| 20260901014016 | 20 | 0 | 0.0 | 0.0 | 0.00 | 0.00 | 0.00 | 80 | 1014.2 |
| 20260901013520 | 20 | 0 | 0.0 | 0.0 | 0.00 | 0.00 | 0.00 | 80 | 1014.1 |
| 20260901013035 | 21 | 0 | 0.0 | 0.0 | 0.00 | 0.00 | 0.00 | 81 | 1014.1 |
| 20260901012519 | 21 | 0 | 0.0 | 0.0 | 0.00 | 0.00 | 0.00 | 78 | 1013.9 |
| 20260901012019 | 21 | 0 | 0.0 | 0.0 | 0.00 | 0.00 | 0.00 | 76 | 1013.9 |
| 20260901011533 | 21 | 0 | 0.0 | 0.0 | 0.00 | 0.00 | 0.00 | 76 | 1013.8 |
| 20260901011023 | 21 | 0 | 0.0 | 0.0 | 0.00 | 0.00 | 0.00 | 74 | 1013.8 |
| 20260901010519 | 21 | 0 | 0.0 | 0.0 | 0.00 | 0.00 | 0.00 | 74 | 1013.7 |
| 20260901010034 | 22 | 0 | 0.0 | 0.0 | 0.00 | 0.00 | 0.00 | 73 | 1013.6 |
| 20260901005518 | 22 | 0 | 0.0 | 0.0 | 0.00 | 0.00 | 0.00 | 71 | 1013.7 |
| 20260901005019 | 22 | 0 | 0.0 | 0.0 | 0.00 | 0.00 | 0.00 | 71 | 1013.6 |
| 20260901004537 | 23 | 0 | 0.0 | 0.0 | 0.00 | 0.00 | 0.00 | 71 | 1013.5 |
| 20260901004021 | 23 | 0 | 0.0 | 0.0 | 0.00 | 0.00 | 0.00 | 67 | 1013.4 |
| 20260901003521 | 24 | 0 | 0.0 | 0.0 | 0.00 | 0.00 | 0.00 | 72 | 1013.5 |
| 20260901003035 | 24 | 0 | 0.0 | 0.0 | 0.00 | 0.00 | 0.00 | 69 | 1013.4 |
| 20260901002518 | 24 | 0 | 0.0 | 0.0 | 0.00 | 0.00 | 0.00 | 68 | 1013.4 |
| 20260901002020 | 25 | 0 | 0.0 | 0.0 | 0.00 | 0.00 | 0.00 | 68 | 1013.3 |
| 20260901001546 | 25 | 0 | 0.0 | 0.0 | 0.00 | 0.00 | 0.00 | 65 | 1013.3 |
| 20260901001021 | 25 | 0 | 0.0 | 0.0 | 0.00 | 0.00 | 0.00 | 64 | 1013.3 |
| 20260901000521 | 26 | 0 | 0.0 | 0.0 | 0.00 | 0.00 | 0.00 | 60 | 1013.1 |
| 20260901000036 | 26 | 0 | 0.0 | 0.0 | 0.00 | 0.00 | 0.00 | 66 | 1013.1 |
| 20260831235521 | 26 | 0 | 0.0 | 0.0 | 0.00 | 0.00 | 0.00 | 59 | 1013.1 |
| 20260831235019 | 26 | 0 | 0.0 | 0.0 | 0.00 | 0.00 | 0.00 | 55 | 1013.0 |
| 20260831234538 | 26 | 0 | 0.0 | 0.0 | 0.00 | 0.00 | 0.00 | 54 | 1013.1 |
| 20260831234019 | 27 | 0 | 0.0 | 1.6 | 0.00 | 0.00 | 0.00 | 54 | 1013.1 |
| 20260831233516 | 27 | 0 | 0.0 | 1.6 | 0.00 | 0.00 | 0.00 | 53 | 1013.1 |
| 20260831233037 | 27 | 0 | 0.0 | 1.6 | 0.00 | 0.00 | 0.00 | 53 | 1013.1 |
| 20260831232522 | 27 | 0 | 0.0 | 4.8 | 0.00 | 0.00 | 0.00 | 53 | 1013.1 |
| 20260831232021 | 27 | 0 | 0.0 | 4.8 | 0.00 | 0.00 | 0.00 | 55 | 1013.1 |
| 20260831231535 | 27 | 0 | 0.0 | 3.2 | 0.00 | 0.00 | 0.00 | 53 | 1013.2 |
| 20260831231020 | 28 | 349 | 0.0 | 3.2 | 0.00 | 0.00 | 0.00 | 52 | 1013.1 |
| 20260831230520 | 28 | 0 | 0.0 | 4.8 | 0.00 | 0.00 | 0.00 | 51 | 1013.1 |
| 20260831230036 | 28 | 0 | 1.6 | 6.4 | 0.00 | 0.00 | 0.00 | 50 | 1013.1 |
| 20260831225521 | 28 | 329 | 0.0 | 6.4 | 0.00 | 0.00 | 0.00 | 51 | 1013.0 |
| 20260831225019 | 28 | 0 | 0.0 | 4.8 | 0.00 | 0.00 | 0.00 | 47 | 1012.9 |
| 20260831224534 | 28 | 0 | 0.0 | 3.2 | 0.00 | 0.00 | 0.00 | 53 | 1013.0 |
| 20260831224020 | 28 | 0 | 0.0 | 4.8 | 0.00 | 0.00 | 0.00 | 50 | 1012.9 |
| 20260831223520 | 28 | 0 | 0.0 | 4.8 | 0.00 | 0.00 | 0.00 | 46 | 1013.0 |
| 20260831223033 | 28 | 0 | 0.0 | 4.8 | 0.00 | 0.00 | 0.00 | 49 | 1013.0 |
| 20260831222520 | 28 | 300 | 0.0 | 6.4 | 0.00 | 0.00 | 0.00 | 50 | 1012.9 |
| 20260831222021 | 28 | 0 | 1.6 | 9.7 | 0.00 | 0.00 | 0.00 | 53 | 1012.9 |
| 20260831221537 | 28 | 355 | 1.6 | 9.7 | 0.00 | 0.00 | 0.00 | 52 | 1012.9 |
| 20260831221019 | 28 | 0 | 0.0 | 4.8 | 0.00 | 0.00 | 0.00 | 57 | 1012.9 |
| 20260831220522 | 28 | 311 | 0.0 | 6.4 | 0.00 | 0.00 | 0.00 | 54 | 1012.8 |
| 20260831220035 | 28 | 310 | 1.6 | 6.4 | 0.00 | 0.00 | 0.00 | 57 | 1012.9 |
| 20260831215516 | 28 | 0 | 1.6 | 6.4 | 0.00 | 0.00 | 0.00 | 57 | 1012.9 |
| 20260831215020 | 28 | 349 | 0.0 | 3.2 | 0.00 | 0.00 | 0.00 | 57 | 1012.8 |
| 20260831214534 | 28 | 274 | 0.0 | 4.8 | 0.00 | 0.00 | 0.00 | 59 | 1012.9 |
| 20260831214020 | 28 | 274 | 0.0 | 4.8 | 0.00 | 0.00 | 0.00 | 57 | 1012.7 |
| 20260831213520 | 28 | 257 | 1.6 | 8.0 | 0.00 | 0.00 | 0.00 | 60 | 1012.7 |
| 20260831213034 | 28 | 269 | 0.0 | 8.0 | 0.00 | 0.00 | 0.00 | 65 | 1012.8 |
| 20260831212521 | 28 | 0 | 0.0 | 8.0 | 0.00 | 0.00 | 0.00 | 68 | 1012.7 |
| 20260831212021 | 27 | 0 | 0.0 | 6.4 | 0.00 | 0.00 | 0.00 | 70 | 1012.5 |
| 20260831211535 | 27 | 0 | 0.0 | 8.0 | 0.00 | 0.00 | 0.00 | 70 | 1012.5 |
| 20260831211017 | 27 | 233 | 0.0 | 8.0 | 0.00 | 0.00 | 0.00 | 68 | 1012.5 |
| 20260831210517 | 27 | 0 | 1.6 | 8.0 | 0.00 | 0.00 | 0.00 | 69 | 1012.5 |
| 20260831210038 | 27 | 0 | 0.0 | 8.0 | 0.00 | 0.00 | 0.00 | 70 | 1012.5 |
| 20260831205521 | 27 | 233 | 1.6 | 8.0 | 0.00 | 0.00 | 0.00 | 72 | 1012.5 |
| 20260831205020 | 27 | 0 | 1.6 | 8.0 | 0.00 | 0.00 | 0.00 | 72 | 1012.5 |
| 20260831204535 | 27 | 233 | 3.2 | 8.0 | 0.00 | 0.00 | 0.00 | 72 | 1012.5 |
| 20260831204021 | 27 | 225 | 1.6 | 8.0 | 0.00 | 0.00 | 0.00 | 73 | 1012.5 |
| 20260831203520 | 27 | 0 | 0.0 | 3.2 | 0.00 | 0.00 | 0.00 | 74 | 1012.5 |
| 20260831203035 | 27 | 0 | 0.0 | 3.2 | 0.00 | 0.00 | 0.00 | 75 | 1012.4 |
| 20260831202520 | 27 | 225 | 0.0 | 3.2 | 0.00 | 0.00 | 0.00 | 78 | 1012.5 |
| 20260831202021 | 26 | 0 | 0.0 | 8.0 | 0.00 | 0.00 | 0.00 | 77 | 1012.5 |
| 20260831201545 | 26 | 0 | 0.0 | 11.3 | 0.00 | 0.00 | 0.00 | 79 | 1012.5 |
| 20260831201021 | 26 | 225 | 4.8 | 11.3 | 0.00 | 0.00 | 0.00 | 79 | 1012.4 |
| 20260831200517 | 26 | 223 | 4.8 | 11.3 | 0.00 | 0.00 | 0.00 | 80 | 1012.5 |
| 20260831200036 | 25 | 0 | 0.0 | 6.4 | 0.00 | 0.00 | 0.00 | 83 | 1012.4 |
| 20260831195515 | 25 | 175 | 1.6 | 6.4 | 0.00 | 0.00 | 0.00 | 83 | 1012.4 |
| 20260831195020 | 25 | 0 | 0.0 | 6.4 | 0.00 | 0.00 | 0.00 | 85 | 1012.4 |
| 20260831194535 | 25 | 175 | 3.2 | 6.4 | 0.00 | 0.00 | 0.00 | 85 | 1012.5 |
| 20260831194026 | 25 | 175 | 0.0 | 8.0 | 0.00 | 0.00 | 0.00 | 86 | 1012.5 |
| 20260831193520 | 25 | 175 | 1.6 | 8.0 | 0.00 | 0.00 | 0.00 | 85 | 1012.4 |
| 20260831193032 | 25 | 175 | 3.2 | 8.0 | 0.00 | 0.00 | 0.00 | 86 | 1012.5 |
| 20260831192519 | 25 | 229 | 3.2 | 9.7 | 0.00 | 0.00 | 0.00 | 86 | 1012.5 |
| 20260831192020 | 25 | 229 | 1.6 | 9.7 | 0.00 | 0.00 | 0.00 | 86 | 1012.4 |
| 20260831191536 | 25 | 214 | 0.0 | 6.4 | 0.00 | 0.00 | 0.00 | 86 | 1012.4 |
| 20260831191016 | 25 | 214 | 0.0 | 6.4 | 0.00 | 0.00 | 0.00 | 87 | 1012.4 |
| 20260831190519 | 24 | 214 | 3.2 | 6.4 | 0.00 | 0.00 | 0.00 | 88 | 1012.5 |
| 20260831190036 | 24 | 219 | 1.6 | 9.7 | 0.00 | 0.00 | 0.00 | 87 | 1012.5 |
| 20260831185520 | 24 | 219 | 0.0 | 9.7 | 0.00 | 0.00 | 0.00 | 87 | 1012.6 |
| 20260831185023 | 24 | 0 | 0.0 | 8.0 | 0.00 | 0.00 | 0.00 | 88 | 1012.8 |
| 20260831184536 | 24 | 219 | 3.2 | 8.0 | 0.00 | 0.00 | 0.00 | 87 | 1012.8 |
| 20260831184021 | 24 | 0 | 0.0 | 6.4 | 0.00 | 0.00 | 0.00 | 88 | 1012.7 |
| 20260831183519 | 24 | 0 | 1.6 | 6.4 | 0.00 | 0.00 | 0.00 | 87 | 1012.8 |
| 20260831183035 | 24 | 219 | 0.0 | 6.4 | 0.00 | 0.00 | 0.00 | 88 | 1012.8 |
| 20260831182518 | 24 | 0 | 0.0 | 8.0 | 0.00 | 0.00 | 0.00 | 90 | 1012.7 |
| 20260831182018 | 24 | 0 | 0.0 | 8.0 | 0.00 | 0.00 | 0.00 | 89 | 1012.8 |
| 20260831181533 | 23 | 219 | 3.2 | 6.4 | 0.00 | 0.00 | 0.00 | 89 | 1012.6 |
| 20260831181020 | 23 | 219 | 0.0 | 4.8 | 0.00 | 0.00 | 0.00 | 90 | 1012.6 |
| 20260831180520 | 23 | 0 | 0.0 | 3.2 | 0.00 | 0.00 | 0.00 | 90 | 1012.6 |
| 20260831180037 | 23 | 0 | 0.0 | 8.0 | 0.00 | 0.00 | 0.00 | 91 | 1012.6 |